Probability
10 45 77 81 81 84 87 90 97 97 90 84 61 61 61 61 58 48 42 32 29 19 13 6 6 6 6 3 3 6 0 6 6 3 3 3 3 0 0 0 0 0 0
10 45 81 81 81 84 84 84 87 90 97 87 65 58 61 61 55 48 42 32 23 19 10 3 10 6 6 0 0 0 0 0 0 0 0 0 0 0 0 0 0 0 0
19 42 68 77 84 81 84 84 87 87 84 84 84 71 55 55 52 52 45 32 23 16 16 10 16 10 3 0 0 0 0 0 0 0 0 0 0 0 0 0 0 0 0
19 42 61 71 74 77 81 84 84 84 84 77 77 71 65 52 42 39 45 39 32 23 26 23 19 13 6 3 0 0 3 0 0 0 0 0 0 0 0 0 0 0 0
16 32 42 61 68 71 74 81 77 84 84 77 77 77 74 65 52 45 42 48 48 48 35 32 32 13 13 6 0 0 3 0 0 0 0 0 0 0 0 0 0 0 0
13 19 42 55 61 61 61 68 71 81 81 74 81 74 68 68 58 55 58 68 65 52 42 39 23 16 16 3 0 0 3 3 0 0 0 0 0 0 0 0 0 0 0
10 16 26 45 55 58 61 61 61 68 71 81 74 68 68 65 65 58 61 58 65 48 32 29 16 13 10 6 0 0 3 3 0 0 0 0 0 0 0 0 0 0 0
6 10 23 32 35 45 52 55 61 61 68 71 81 74 74 68 74 65 65 61 58 48 39 42 23 13 10 6 6 0 3 0 0 0 0 0 0 0 0 0 0 0 0
3 3 3 16 23 29 29 35 45 58 55 61 68 71 71 71 71 61 65 65 58 55 45 48 39 19 10 6 6 3 3 0 0 0 0 0 0 0 0 0 0 0 0
0 0 3 6 6 6 13 19 23 23 39 42 45 39 29 29 48 52 48 55 58 52 42 45 42 19 6 3 3 3 0 0 0 0 0 0 0 0 0 0 0 0 0
0 0 0 0 0 0 0 13 16 10 13 13 10 6 6 6 10 16 13 13 19 45 45 29 26 19 0 0 0 0 0 0 0 0 0 0 0 3 3 0 0 0 0
0 0 0 0 0 0 0 0 0 3 3 3 0 0 0 0 0 3 0 0 0 3 6 16 13 6 0 0 0 0 0 0 0 0 0 0 0 3 3 0 0 0 0
0 0 0 0 0 0 0 0 0 0 0 0 0 0 0 0 0 0 0 0 0 0 0 0 0 0 0 0 0 0 0 0 0 0 0 0 0 3 3 0 0 0 0
0 0 0 0 0 0 0 0 0 0 0 0 0 0 0 0 0 0 0 0 0 0 0 0 0 0 0 0 0 0 0 0 0 0 0 0 0 3 3 0 0 0 0
0 0 0 0 0 0 0 0 0 0 0 0 0 0 0 0 0 0 0 0 0 0 0 0 0 0 0 0 0 0 0 0 0 0 0 0 0 0 3 3 0 0 0
0 0 0 0 0 0 0 0 0 0 0 0 0 0 0 0 0 0 0 0 0 0 0 0 0 0 0 0 0 0 0 0 0 0 0 0 0 0 0 3 0 0 0
0 0 0 0 0 0 0 0 0 0 0 0 0 0 0 0 0 0 0 0 0 0 0 0 0 0 0 0 0 0 0 0 0 0 0 0 0 0 0 0 0 0 0
0 0 0 0 0 0 0 0 0 0 0 0 0 0 0 0 0 0 0 0 0 0 0 0 0 0 0 0 0 0 0 0 0 0 0 0 0 0 0 0 0 0 0
0 0 0 0 0 0 0 0 0 0 0 0 0 0 0 0 0 0 0 0 0 0 0 0 0 0 0 0 0 0 0 0 0 0 0 0 0 0 0 0 0 0 0
0 0 0 0 0 0 0 0 0 0 0 0 0 0 0 0 0 0 0 0 0 0 0 0 0 0 0 0 0 0 0 0 0 0 0 0 0 0 0 0 0 0 0
0 0 0 0 0 0 0 0 0 0 0 0 0 0 0 0 0 0 0 0 0 0 0 0 0 0 0 0 0 0 0 0 0 0 0 0 0 0 0 0 0 0 0
0 0 0 0 0 0 0 0 0 0 0 0 0 0 0 0 0 0 0 0 0 0 0 0 0 0 0 0 0 0 0 0 0 0 0 0 0 0 0 0 0 0 0
0 0 0 0 0 0 0 0 0 0 0 0 0 0 0 0 0 0 0 0 0 0 0 0 0 0 0 0 0 0 0 0 0 0 0 0 0 0 0 0 0 0 0
0 0 0 0 0 0 0 0 0 0 0 0 0 0 0 0 0 0 0 0 0 0 0 0 0 0 0 0 0 0 0 0 0 0 0 0 0 0 0 0 0 0 0
0 0 0 0 0 0 0 0 0 0 0 0 0 0 0 0 0 0 0 0 0 0 0 0 0 0 0 0 0 0 0 0 0 0 0 0 0 0 0 0 0 0 0
0 0 0 0 0 0 0 0 0 0 0 0 0 0 0 0 0 0 0 0 0 0 0 0 0 0 0 0 0 0 0 0 0 0 0 0 0 0 0 0 0 0 0
Height
5870 5871 5871 5872 5873 5874 5874 5875 5876 5876 5877 5877 5878 5878 5878 5879 5879 5880 5880 5880 5880 5880 5880 5880 5880 5880 5880 5880 5879 5879 5879 5879 5878 5878 5877 5877 5876 5876 5875 5875 5874 5873 5873
5867 5868 5869 5870 5870 5871 5872 5873 5873 5874 5874 5875 5875 5876 5876 5877 5877 5877 5877 5878 5878 5878 5878 5878 5878 5878 5878 5878 5878 5878 5877 5877 5877 5877 5876 5876 5875 5875 5874 5874 5873 5872 5872
5864 5865 5866 5866 5867 5868 5869 5870 5870 5871 5872 5872 5873 5873 5874 5874 5874 5875 5875 5875 5875 5875 5875 5876 5876 5876 5876 5876 5876 5876 5876 5875 5875 5875 5875 5874 5874 5873 5873 5872 5872 5871 5871
5860 5861 5862 5863 5864 5865 5866 5867 5867 5868 5869 5869 5870 5870 5871 5871 5872 5872 5872 5872 5872 5872 5872 5873 5873 5873 5873 5873 5873 5873 5873 5873 5873 5873 5873 5872 5872 5871 5871 5870 5870 5869 5869
5856 5857 5858 5859 5860 5861 5862 5863 5864 5864 5865 5866 5866 5867 5867 5868 5868 5869 5869 5869 5869 5869 5869 5869 5870 5870 5870 5870 5870 5870 5870 5870 5870 5870 5870 5870 5869 5869 5869 5868 5868 5867 5867
5851 5852 5854 5855 5856 5857 5857 5858 5859 5860 5861 5862 5862 5863 5863 5864 5864 5865 5865 5865 5865 5865 5866 5866 5866 5866 5866 5866 5867 5867 5867 5867 5867 5867 5867 5867 5866 5866 5866 5866 5865 5865 5864
5846 5847 5849 5850 5851 5852 5853 5854 5854 5855 5856 5857 5858 5858 5859 5859 5860 5860 5861 5861 5861 5861 5862 5862 5862 5862 5862 5863 5863 5863 5863 5863 5863 5863 5863 5863 5863 5863 5863 5862 5862 5862 5861
5840 5842 5843 5844 5845 5846 5847 5848 5849 5850 5851 5851 5852 5853 5854 5854 5855 5855 5856 5856 5857 5857 5857 5857 5857 5858 5858 5858 5858 5859 5859 5859 5859 5859 5859 5859 5859 5859 5859 5859 5858 5858 5858
5834 5836 5837 5838 5839 5840 5841 5842 5843 5844 5845 5846 5846 5847 5848 5849 5849 5850 5850 5851 5852 5852 5852 5852 5852 5853 5853 5853 5853 5854 5854 5854 5854 5854 5854 5854 5854 5854 5854 5854 5854 5854 5854
5828 5829 5831 5832 5833 5834 5835 5836 5837 5837 5838 5839 5840 5841 5842 5842 5843 5844 5844 5845 5846 5846 5846 5847 5847 5847 5847 5848 5848 5848 5849 5849 5849 5849 5849 5849 5849 5849 5849 5849 5850 5849 5849
5822 5823 5824 5825 5827 5827 5828 5829 5830 5831 5831 5832 5833 5834 5835 5835 5836 5837 5838 5838 5839 5839 5840 5840 5841 5841 5841 5842 5842 5842 5843 5843 5843 5843 5843 5843 5844 5844 5844 5844 5844 5844 5844
5815 5817 5818 5819 5820 5820 5821 5822 5822 5823 5824 5825 5825 5826 5827 5828 5828 5829 5830 5831 5831 5832 5832 5833 5833 5834 5834 5835 5835 5836 5836 5837 5837 5837 5837 5837 5838 5838 5838 5838 5838 5838 5839
5809 5810 5810 5811 5812 5813 5814 5814 5815 5815 5816 5817 5817 5818 5818 5819 5820 5821 5822 5822 5823 5824 5824 5825 5826 5826 5827 5827 5828 5828 5829 5830 5830 5830 5831 5831 5831 5831 5832 5832 5832 5832 5833
5802 5803 5803 5804 5804 5805 5806 5806 5806 5807 5807 5808 5808 5808 5809 5810 5811 5812 5812 5813 5814 5815 5816 5816 5817 5818 5819 5819 5820 5821 5821 5822 5823 5823 5824 5824 5824 5824 5825 5825 5825 5826 5826
5795 5795 5795 5796 5796 5796 5797 5797 5797 5797 5798 5798 5798 5799 5799 5800 5801 5801 5802 5803 5804 5805 5806 5807 5808 5809 5810 5810 5811 5812 5813 5814 5814 5815 5816 5816 5817 5817 5818 5818 5818 5819 5819
5787 5787 5787 5787 5787 5787 5787 5787 5787 5787 5787 5788 5788 5788 5789 5790 5790 5791 5791 5792 5793 5794 5795 5797 5798 5799 5800 5801 5802 5803 5804 5804 5805 5806 5807 5808 5809 5809 5810 5810 5811 5811 5812
5779 5778 5778 5778 5777 5777 5777 5777 5777 5777 5777 5777 5777 5777 5778 5778 5779 5780 5780 5781 5782 5783 5784 5786 5787 5788 5790 5791 5792 5793 5794 5795 5796 5797 5798 5799 5800 5801 5801 5802 5803 5803 5803
5770 5769 5769 5768 5768 5767 5766 5766 5766 5765 5765 5765 5765 5765 5766 5766 5767 5768 5769 5769 5770 5771 5772 5774 5776 5777 5779 5780 5781 5782 5783 5785 5786 5788 5788 5789 5790 5791 5792 5793 5794 5794 5795
5760 5760 5760 5759 5758 5757 5756 5755 5754 5754 5754 5754 5754 5754 5754 5754 5755 5755 5756 5757 5757 5758 5760 5762 5764 5766 5767 5769 5770 5772 5773 5774 5775 5777 5778 5779 5780 5781 5782 5783 5784 5785 5786
5751 5751 5750 5749 5748 5746 5745 5744 5743 5742 5742 5741 5741 5741 5741 5741 5742 5743 5743 5744 5744 5746 5747 5749 5751 5753 5755 5757 5758 5760 5762 5763 5764 5766 5768 5769 5769 5770 5772 5773 5774 5775 5776
5742 5741 5740 5739 5737 5736 5734 5733 5731 5730 5729 5729 5729 5729 5729 5729 5729 5730 5730 5730 5731 5733 5735 5736 5738 5740 5743 5744 5746 5748 5750 5751 5753 5755 5757 5758 5759 5760 5761 5762 5763 5765 5766
5733 5732 5731 5729 5727 5725 5723 5721 5720 5718 5717 5716 5716 5716 5716 5716 5717 5717 5718 5719 5720 5721 5722 5724 5726 5727 5730 5731 5733 5734 5737 5740 5742 5743 5745 5746 5748 5749 5750 5751 5752 5754 5755
5724 5723 5722 5720 5718 5716 5713 5711 5709 5707 5706 5705 5704 5704 5704 5704 5705 5706 5706 5707 5708 5710 5711 5713 5714 5715 5717 5719 5720 5722 5724 5728 5729 5732 5733 5734 5735 5737 5739 5740 5741 5742 5743
5716 5715 5713 5711 5709 5707 5704 5701 5699 5697 5696 5694 5693 5693 5693 5693 5694 5694 5695 5696 5697 5698 5699 5701 5702 5703 5705 5707 5708 5710 5712 5714 5716 5719 5721 5722 5723 5724 5726 5727 5729 5730 5731
5709 5707 5705 5703 5701 5699 5696 5693 5690 5688 5686 5685 5684 5684 5683 5683 5684 5684 5685 5686 5687 5688 5689 5690 5691 5692 5694 5695 5697 5699 5700 5702 5703 5705 5709 5710 5710 5712 5713 5715 5716 5718 5719
5702 5700 5698 5696 5694 5691 5688 5685 5683 5681 5679 5677 5676 5675 5675 5674 5675 5675 5676 5677 5678 5679 5680 5680 5681 5682 5683 5684 5686 5687 5688 5689 5691 5692 5694 5696 5698 5699 5700 5702 5703 5705 5706
Wind_Speed
14 14 14 14 14 14 14 13 13 14 14 14 14 14 14 14 13 13 13 13 12 12 11 11 10 10 10 10 10 10 9 9 9 9 9 8 8 8 8 7 7 6 6
16 16 16 16 16 16 16 16 16 15 15 15 16 16 15 15 15 15 15 14 14 14 13 13 12 12 12 12 12 11 11 11 11 11 10 10 10 9 9 9 9 8 8
18 18 19 19 18 18 18 18 18 18 18 18 17 17 17 17 16 17 16 16 16 15 15 15 15 14 14 14 13 13 13 13 13 13 12 12 12 11 11 11 11 11 10
21 21 21 21 21 21 21 20 20 20 20 20 19 19 19 19 18 18 18 18 18 17 17 17 17 16 16 16 15 15 15 15 15 14 14 14 14 13 13 13 13 13 12
24 24 24 24 24 24 24 23 23 22 22 22 21 21 21 21 20 20 20 20 20 20 20 19 18 18 18 17 17 17 17 17 17 16 16 16 16 16 15 15 15 15 14
26 26 26 26 26 26 26 26 25 25 25 24 24 23 23 23 23 22 22 22 21 21 21 21 21 20 20 19 19 18 18 18 18 18 18 18 18 18 18 18 17 17 17
29 29 29 28 28 28 28 28 28 27 27 27 27 26 26 25 25 25 24 24 24 23 23 23 23 22 22 21 21 20 20 20 20 20 20 20 20 20 20 20 20 19 19
31 31 31 31 31 30 30 30 30 30 30 30 30 29 29 28 28 27 27 26 26 25 25 24 24 24 24 23 23 23 22 21 21 22 22 22 22 22 22 22 22 21 21
32 32 32 32 32 32 32 32 32 32 33 32 32 32 32 31 31 30 29 29 28 28 27 27 26 26 26 25 25 25 24 24 23 23 24 24 24 24 24 24 23 23 23
32 32 32 33 33 33 33 34 34 34 35 35 35 35 34 34 34 33 33 32 31 31 30 29 29 29 28 28 28 27 27 26 26 26 26 25 25 25 25 25 25 25 25
32 32 32 32 33 34 34 35 36 36 36 37 37 37 37 37 36 36 35 35 34 34 33 33 32 32 31 31 30 30 29 28 27 27 27 27 27 27 27 27 27 27 27
32 32 33 33 34 34 35 36 36 37 38 38 39 39 39 39 39 39 38 38 37 37 37 36 35 35 34 33 32 32 31 30 29 28 28 29 29 28 28 28 28 28 28
33 34 34 35 35 36 37 37 38 39 39 40 40 41 41 42 42 42 42 41 40 40 40 39 39 38 37 36 35 34 34 33 32 31 31 31 31 30 30 30 30 30 30
34 35 36 36 37 38 38 39 40 41 41 42 42 42 42 43 44 44 44 44 44 43 43 42 41 41 40 39 38 37 37 36 35 35 34 33 33 32 32 32 32 31 31
36 37 37 38 38 39 40 41 42 43 44 44 44 44 43 43 44 45 46 46 46 46 45 44 43 43 42 42 41 40 39 39 38 38 36 36 35 34 34 34 33 33 33
37 38 39 41 42 42 43 44 45 45 45 46 46 46 46 46 46 46 47 48 48 48 47 46 45 45 44 44 43 43 42 41 40 39 39 38 37 36 35 35 35 35 35
39 39 40 41 43 44 44 44 45 47 47 48 48 48 48 48 48 48 48 49 49 50 49 48 47 46 46 46 45 45 44 43 42 41 40 40 39 38 38 37 37 36 36
40 40 41 42 43 43 44 45 45 46 47 47 48 48 48 48 48 49 49 49 50 51 51 50 49 49 48 47 46 45 45 45 45 43 42 42 42 41 40 39 39 38 38
40 41 41 41 42 43 45 45 46 46 47 48 48 48 49 49 49 49 49 50 51 51 51 51 51 50 49 49 49 47 46 46 46 45 45 44 43 43 42 42 41 40 40
39 40 41 42 43 44 45 46 47 48 49 49 49 49 50 50 50 50 50 50 51 51 50 50 50 51 51 50 50 50 49 49 48 48 47 45 44 44 44 44 43 43 42
39 40 40 41 41 42 44 45 47 48 48 49 49 49 48 49 49 49 49 50 50 51 51 50 51 52 52 52 52 52 51 52 51 50 49 47 46 46 46 45 44 44 43
39 39 39 39 40 41 41 42 43 44 45 46 47 48 48 48 47 47 47 48 48 49 50 51 51 52 52 53 53 53 52 52 52 52 52 51 49 48 48 47 46 46 45
36 36 36 37 38 38 39 39 40 40 41 43 44 45 46 46 46 46 46 47 48 48 49 50 50 50 52 53 53 54 53 53 53 53 52 52 52 51 48 47 48 48 47
32 33 34 35 35 36 36 37 38 39 39 40 41 41 42 42 43 44 44 45 45 46 47 48 48 49 50 51 52 53 53 54 53 53 53 53 53 52 51 50 49 47 48
31 31 32 32 32 33 33 33 34 34 35 36 37 37 38 39 40 40 41 42 43 44 45 46 48 48 49 50 51 52 52 53 54 55 54 54 55 54 53 52 51 50 49
29 29 29 29 29 29 29 28 28 29 29 30 31 32 33 35 36 37 38 38 40 42 43 44 46 46 47 47 49 50 51 52 53 54 55 55 54 55 55 54 53 52 52
Wind_Direction
249 251 253 255 257 259 261 263 264 264 265 267 268 269 269 268 268 269 271 272 273 275 277 277 277 275 275 276 277 278 280 281 280 280 280 279 279 279 280 283 288 293 298
251 252 254 256 258 261 263 264 265 265 266 266 268 269 270 270 270 269 270 270 271 272 274 275 276 276 275 274 273 274 276 277 278 278 279 279 278 278 279 280 283 285 288
252 253 256 257 259 261 263 264 265 265 266 267 268 269 270 271 271 271 270 270 270 271 271 272 273 274 275 274 273 272 273 274 274 276 278 278 277 277 277 278 280 281 283
253 254 256 258 260 261 262 263 264 264 265 266 267 268 269 271 271 272 272 272 271 271 271 271 272 272 273 273 273 273 272 272 272 274 275 276 276 276 275 276 277 279 280
254 254 256 258 260 261 262 263 263 264 265 266 266 267 268 269 270 270 271 272 271 270 270 270 270 271 271 272 273 274 272 271 271 271 273 274 275 275 276 276 276 276 278
255 256 257 259 260 261 262 263 263 264 265 266 266 267 268 268 269 269 269 270 271 270 270 270 269 269 270 271 272 273 273 272 271 271 271 272 272 273 274 275 276 276 276
256 257 258 260 261 262 263 264 264 265 265 266 266 267 267 268 268 269 270 270 270 269 269 269 269 269 268 269 271 272 272 272 271 271 271 270 271 271 272 274 274 275 275
257 258 259 260 261 262 263 264 265 265 266 266 267 267 267 267 268 268 269 269 269 269 269 269 269 269 269 269 269 270 271 271 270 270 270 270 270 270 271 272 273 273 274
258 259 260 260 261 262 263 264 264 265 266 267 267 268 268 268 268 268 268 269 269 269 269 270 270 270 270 269 269 270 270 269 270 269 269 269 269 269 269 270 271 272 273
258 259 260 261 261 262 263 264 264 265 266 266 267 268 268 268 268 268 268 268 269 269 269 269 269 269 269 270 270 270 269 269 268 268 268 269 269 269 269 269 269 271 272
259 260 260 261 261 263 263 264 264 265 266 266 267 267 268 268 268 268 268 268 268 269 269 269 269 269 269 269 269 270 269 268 267 267 268 268 268 268 269 268 268 269 270
259 260 261 261 262 263 264 264 265 266 266 267 267 267 267 267 268 268 268 268 268 268 268 268 268 268 268 268 268 268 268 267 267 268 268 267 268 268 268 268 268 268 269
260 261 262 262 263 264 265 266 266 267 267 267 267 267 267 267 267 267 267 267 267 267 267 267 267 267 267 267 267 267 266 267 266 268 268 268 268 268 268 268 267 267 268
261 263 264 264 264 265 266 267 267 267 267 267 268 268 268 267 267 266 266 266 266 266 266 267 266 266 266 266 266 266 266 265 266 267 267 267 268 268 267 267 267 267 268
262 263 264 265 266 266 267 267 267 267 267 267 267 267 267 267 267 266 266 265 265 265 265 265 265 265 265 266 265 265 265 265 266 266 266 266 266 266 267 266 266 267 267
263 264 265 266 267 267 268 268 267 267 266 266 266 266 266 266 266 266 266 265 265 264 264 264 264 264 264 264 264 264 264 264 265 266 265 264 263 264 266 266 266 267 267
265 266 267 268 268 268 269 269 268 267 267 267 266 265 266 266 266 266 266 265 264 263 262 262 262 262 262 262 262 263 263 263 264 265 265 263 262 263 265 266 266 266 266
266 267 268 269 270 269 269 269 269 268 267 267 267 266 266 266 266 266 265 265 263 262 261 261 260 260 260 261 260 261 261 262 262 263 265 265 263 263 264 265 265 266 265
267 268 269 269 269 269 269 269 269 268 268 267 267 266 266 265 265 265 265 264 263 262 261 260 259 258 259 259 259 260 259 260 260 261 262 263 263 262 262 263 263 264 265
268 269 269 270 270 270 269 269 270 269 268 267 267 267 266 265 265 265 264 262 261 260 260 259 258 257 257 257 258 258 258 258 259 260 261 261 262 262 261 262 262 263 264
269 270 271 272 272 272 271 271 271 270 268 266 266 266 265 265 265 265 264 262 260 259 258 259 258 257 257 257 258 258 258 257 257 258 259 260 259 259 260 261 260 261 262
270 271 272 273 273 274 274 273 272 270 268 266 266 264 264 264 264 264 264 261 260 259 258 258 257 257 256 256 257 258 257 257 258 258 257 258 258 258 258 258 260 259 259
273 272 273 275 275 276 276 274 273 271 270 268 267 266 264 264 263 263 262 260 259 259 258 257 257 257 257 256 256 257 258 257 258 258 257 257 257 256 257 258 260 260 259
272 273 275 277 277 278 278 278 277 275 273 271 269 268 266 264 264 263 262 260 259 258 257 256 256 257 257 257 257 258 260 260 259 258 258 257 256 257 258 259 261 261 259
272 274 277 279 280 280 281 280 279 277 276 273 269 268 266 265 264 263 263 261 260 259 259 257 257 258 259 259 258 258 260 260 261 262 260 259 259 259 260 261 262 262 259
274 276 278 280 281 282 283 283 281 280 280 276 272 270 268 266 263 263 264 263 262 260 259 259 259 259 259 259 258 259 259 260 262 263 262 261 260 260 260 260 261 261 260